Change the Weather History Date:

Tuesday, December 25, 2012

  Actual Average Record
Temperature  
Mean Temperature 32 °F -  
Max Temperature 33 °F 35 °F 50 °F (2011)
Min Temperature 31 °F 20 °F -13 °F (2004)
Degree Days  
Heating Degree Days 33    
Moisture  
Dew Point 25 °F    
Average Humidity 75    
Maximum Humidity 87    
Minimum Humidity 60    
Precipitation  
Precipitation 0.00 in - - ()
Sea Level Pressure  
Sea Level Pressure 30.15 in    
Wind  
Wind Speed 9 mph (North)    
Max Wind Speed 18 mph    
Max Gust Speed 24 mph    
Visibility 8 miles    
Events Snow    
Averages and records for this station are not official NWS values.
T = Trace of Precipitation, MM = Missing Value Source: NWS Daily Summary

Daily Weather History Graph

Daily Weather History Graph

Search for Another Location

Airport or City:

Trip Planner

Search our weather history database for the weather conditions in past years. The results will help you decide how hot, cold, wet, or windy it might be!

Date:

Astronomy

Dec. 25, 2012 Rise Set
Actual Time 7:55 AM EST 5:17 PM EST
Civil Twilight 7:25 AM EST 5:47 PM EST
Nautical Twilight 6:51 AM EST 6:21 PM EST
Astronomical Twilight 6:18 AM EST 6:54 PM EST
Moon 3:24 PM EST (12/25) 5:27 AM EST (12/25)
Length of Visible Light 10h 22m
Length of Day
9h 21m
Waxing Gibbous, 93% of the Moon is Illuminated
Dec 25
Waxing Gibbous
Dec 28
Full
Jan 4
Last Quarter
Jan 11
New
Jan 18
First Quarter

Hourly Weather History & Observations

Time (EST) Temp. Windchill Dew Point Humidity Pressure Visibility Wind Dir Wind Speed Gust Speed Precip Events Conditions
12:55 AM 32.0 °F 24.2 °F 26.8 °F 81% 30.01 in 6.0 mi WSW 9.2 mph - N/A   Overcast
1:30 AM 32.0 °F 26.4 °F 26.6 °F 80% 30.02 in 8.0 mi WSW 5.8 mph - N/A   Overcast
1:55 AM 32.2 °F 27.7 °F 26.4 °F 79% 30.03 in 8.0 mi WSW 4.6 mph - N/A   Overcast
2:55 AM 32.4 °F 27.9 °F 26.4 °F 79% 30.05 in 10.0 mi West 4.6 mph - N/A   Overcast
3:45 AM 32.0 °F 27.5 °F 26.6 °F 80% 30.08 in 10.0 mi West 4.6 mph - N/A   Overcast
3:55 AM 32.5 °F 29.3 °F 26.2 °F 78% 30.08 in 10.0 mi West 3.5 mph - N/A   Overcast
4:18 AM 32.0 °F 26.4 °F 26.6 °F 80% 30.09 in 8.0 mi WNW 5.8 mph - N/A   Overcast
4:55 AM 32.5 °F 26.2 °F 27.1 °F 80% 30.09 in 7.0 mi NW 6.9 mph - N/A   Overcast
5:41 AM 32.0 °F 27.5 °F 28.4 °F 87% 30.10 in 8.0 mi North 4.6 mph - N/A   Overcast
5:55 AM 32.5 °F 26.2 °F 27.3 °F 81% 30.12 in 9.0 mi NW 6.9 mph - N/A   Overcast
6:55 AM 32.2 °F 25.0 °F 27.9 °F 84% 30.15 in 9.0 mi North 8.1 mph - N/A   Overcast
7:26 AM 32.0 °F 24.8 °F 26.6 °F 80% 30.15 in 9.0 mi North 8.1 mph - N/A   Overcast
7:55 AM 31.8 °F 23.3 °F 27.3 °F 83% 30.16 in 10.0 mi North 10.4 mph - N/A   Overcast
8:40 AM 32.0 °F 25.6 °F 26.6 °F 80% 30.16 in 5.0 mi North 6.9 mph - N/A   Overcast
8:55 AM 31.8 °F 24.6 °F 27.1 °F 83% 30.18 in 5.0 mi NNE 8.1 mph - N/A Snow Light Snow
9:08 AM 32.0 °F 23.6 °F 26.6 °F 80% 30.17 in 5.0 mi NNE 10.4 mph - N/A   Light Drizzle
9:41 AM 32.0 °F 23.6 °F 26.6 °F 80% 30.18 in 9.0 mi NNE 10.4 mph - N/A Snow Light Snow
9:49 AM 32.0 °F 24.8 °F 26.6 °F 80% 30.19 in 5.0 mi NNE 8.1 mph - N/A Snow Light Snow
9:55 AM 32.0 °F 23.6 °F 27.0 °F 82% 30.19 in 5.0 mi NNE 10.4 mph - 0.00 in Snow Light Snow
10:42 AM 32.0 °F 24.2 °F 28.4 °F 87% 30.21 in 5.0 mi NNE 9.2 mph - N/A   Overcast
10:55 AM 32.4 °F 23.5 °F 26.6 °F 79% 30.21 in 10.0 mi NNE 11.5 mph - 0.00 in   Overcast
11:29 AM 32.0 °F 23.0 °F 26.6 °F 80% 30.22 in 10.0 mi NNE 11.5 mph - N/A   Overcast
11:55 AM 32.9 °F 25.3 °F 26.1 °F 76% 30.21 in 5.0 mi NNE 9.2 mph - N/A   Overcast
12:55 PM 33.8 °F 23.9 °F 25.2 °F 71% 30.19 in 7.0 mi NNE 15.0 mph - N/A   Overcast
12:57 PM 33.8 °F 25.8 °F 24.8 °F 70% 30.19 in 7.0 mi NNE 10.4 mph - N/A   Overcast
1:01 PM 33.8 °F 25.3 °F 24.8 °F 70% 30.19 in 7.0 mi NNE 11.5 mph - N/A   Overcast
1:55 PM 33.4 °F 24.8 °F 23.5 °F 67% 30.20 in 10.0 mi NNE 11.5 mph - N/A   Overcast
2:22 PM 33.8 °F 25.8 °F 23.0 °F 65% 30.19 in 10.0 mi NNE 10.4 mph - N/A   Overcast
2:55 PM 33.4 °F 24.3 °F 23.4 °F 67% 30.20 in 10.0 mi NNE 12.7 mph - N/A   Overcast
3:55 PM 33.6 °F 24.1 °F 22.3 °F 63% 30.21 in 10.0 mi NE 13.8 mph - N/A   Overcast
3:57 PM 33.8 °F 24.3 °F 21.2 °F 60% 30.20 in 10.0 mi NNE 13.8 mph - N/A   Overcast
4:55 PM 32.5 °F 23.7 °F 22.8 °F 67% 30.18 in 10.0 mi NNE 11.5 mph - N/A   Overcast
5:55 PM 32.4 °F 22.5 °F 23.0 °F 68% 30.18 in 10.0 mi NNE 13.8 mph - N/A   Overcast
6:55 PM 32.7 °F 24.5 °F 21.6 °F 64% 30.20 in 10.0 mi NE 10.4 mph - N/A   Overcast
7:55 PM 33.1 °F 23.9 °F 21.7 °F 63% 30.19 in 10.0 mi NNE 12.7 mph - N/A   Overcast
8:55 PM 32.5 °F 24.2 °F 23.0 °F 68% 30.19 in 10.0 mi NE 10.4 mph - N/A   Overcast
9:55 PM 32.7 °F 24.5 °F 24.3 °F 71% 30.16 in 10.0 mi NNE 10.4 mph - N/A   Overcast
10:55 PM 33.3 °F 22.8 °F 24.4 °F 70% 30.15 in 10.0 mi NE 16.1 mph - N/A   Overcast
11:55 PM 33.3 °F 22.1 °F 23.9 °F 69% 30.09 in 10.0 mi NE 18.4 mph 24.2 mph N/A   Overcast